SCP
5 5 4 3 2 2 1 1 1 1 1 0 1 1 1 1 1 0 0 0 0 1 1 1 1 1 0 0 0 0 1 1 1 1 1 1 1 1 1 1 1 1 1
6 5 4 3 2 1 1 1 1 1 0 0 0 1 1 0 0 1 1 0 0 1 1 1 1 1 0 0 0 0 0 1 1 1 1 1 1 1 1 1 0 1 1
6 5 4 2 1 1 1 1 1 0 0 0 0 0 0 0 0 0 0 1 0 0 1 1 1 1 1 0 0 0 0 0 0 1 1 1 1 2 1 1 0 0 1
5 4 3 2 1 0 0 0 0 0 0 0 0 0 0 0 0 0 0 0 0 0 0 0 1 1 1 1 1 1 1 0 0 1 1 1 1 2 2 1 1 1 1
3 3 1 1 0 0 0 0 0 0 0 0 0 0 0 0 0 0 0 0 0 0 0 0 0 1 1 1 1 1 1 1 1 1 1 1 1 1 2 1 1 0 1
1 1 0 0 0 0 0 0 0 0 0 0 0 0 0 0 0 0 0 0 0 0 0 0 0 0 1 1 1 1 1 1 1 1 1 1 1 1 1 1 1 0 0
0 0 0 0 0 0 0 0 0 0 0 0 0 0 0 0 0 0 0 0 0 0 0 0 0 0 0 0 1 1 1 2 2 1 1 1 1 1 1 1 1 0 0
0 0 0 0 0 0 0 0 0 0 0 0 0 0 0 0 0 0 0 0 0 0 0 0 0 0 0 0 0 1 1 1 2 2 2 1 1 1 1 1 1 0 0
0 0 0 0 0 0 0 0 0 0 0 0 0 0 0 0 0 0 0 0 0 0 0 0 0 0 0 0 0 0 0 1 1 1 1 1 1 1 1 1 1 1 0
0 0 0 0 0 0 0 0 0 0 0 0 0 0 0 0 0 0 0 0 0 0 0 0 0 0 0 0 0 0 0 0 1 1 1 1 1 1 1 1 1 1 1
0 0 0 0 0 0 0 0 0 0 0 0 0 0 0 0 0 0 0 0 0 0 0 0 0 0 0 0 0 0 0 0 0 1 1 1 1 1 1 1 1 1 1
0 0 0 0 0 0 0 0 0 0 0 0 0 0 0 0 0 0 0 0 0 0 0 0 0 0 0 0 0 0 0 0 0 0 0 1 1 1 1 1 1 1 1
0 0 0 0 0 0 0 0 0 0 0 0 0 0 0 0 0 0 0 0 0 0 0 0 0 0 0 0 0 0 0 0 0 0 0 0 0 1 1 1 1 1 1
1 0 0 0 0 0 0 0 0 0 0 0 0 0 0 0 0 0 0 0 0 0 0 0 0 0 0 0 0 0 0 0 0 0 0 0 0 0 0 0 1 1 1
0 0 0 0 0 0 0 0 0 0 0 0 0 0 0 0 0 0 0 0 0 0 0 0 0 0 0 0 0 0 0 0 0 0 0 0 0 0 0 0 0 0 0
0 0 0 0 0 0 0 0 0 0 0 0 0 0 0 0 0 0 0 0 0 0 0 0 0 0 0 0 0 0 0 0 0 0 0 0 0 0 0 0 0 0 0
0 0 0 0 0 0 0 0 0 0 0 0 0 0 0 0 0 0 0 0 0 0 0 0 0 0 0 0 0 0 0 0 0 0 0 0 0 0 0 0 0 0 0
0 0 0 0 0 0 0 0 0 0 0 0 0 0 0 0 0 0 0 0 0 0 0 0 0 0 0 0 0 0 0 0 0 0 0 0 0 0 0 0 0 0 0
0 0 0 0 0 0 0 0 0 0 0 0 0 0 0 0 0 0 0 0 0 0 0 0 0 0 0 0 0 0 0 0 0 0 0 0 0 0 0 0 0 0 0
0 0 0 0 0 0 0 0 0 0 0 0 0 0 0 0 0 0 0 0 0 0 0 0 0 0 0 0 0 0 0 0 0 0 0 0 0 0 0 0 0 0 0
0 0 0 0 0 0 0 0 0 0 0 0 0 0 0 0 0 0 0 0 0 0 0 0 0 0 0 0 0 0 0 0 0 0 0 0 0 0 0 0 0 0 0
0 0 0 0 0 0 0 0 0 0 0 0 0 0 0 0 0 0 0 0 0 0 0 0 0 0 0 0 0 0 0 0 0 0 0 0 0 0 0 0 0 0 0
0 0 0 0 0 0 0 0 0 0 0 0 0 0 0 0 0 0 0 0 0 0 0 0 0 0 0 0 0 0 0 0 0 0 0 0 0 0 0 0 0 0 0
0 0 0 0 0 0 0 0 0 0 0 0 0 0 0 0 0 0 0 0 0 0 0 0 0 0 0 0 0 0 0 0 0 0 0 0 0 0 0 0 0 0 0
0 0 0 0 0 0 0 0 0 0 0 0 0 0 0 0 0 0 0 0 0 0 0 0 0 0 0 0 0 0 0 0 0 0 0 0 0 0 0 0 0 0 0
0 0 0 0 0 0 0 0 0 0 0 0 0 0 0 0 0 0 0 0 0 0 0 0 0 0 0 0 0 0 0 0 0 0 0 0 0 0 0 0 0 0 0
Wind_Speed
2 2 2 2 2 1 1 1 2 2 2 2 2 2 2 3 2 2 1 3 4 4 5 7 7 8 8 9 9 10 10 10 11 11 11 11 11 12 12 13 13 13 13
3 2 2 2 2 2 1 1 2 2 2 2 2 3 3 3 2 2 2 2 3 4 5 7 8 8 9 10 10 10 11 11 11 11 12 12 12 12 13 13 14 14 14
3 3 2 2 2 1 2 2 2 2 2 2 2 3 3 2 2 2 2 1 1 4 6 7 8 9 10 10 11 11 12 12 12 12 12 12 13 13 13 14 14 15 15
3 3 2 2 1 2 1 1 2 2 2 2 2 2 2 2 2 2 2 2 1 2 3 6 8 9 10 11 11 12 12 12 13 13 13 13 14 14 14 15 15 15 15
3 3 2 2 2 2 2 2 2 2 2 2 2 2 1 1 1 2 2 2 2 2 1 4 7 9 10 11 12 13 13 13 14 14 14 14 14 15 15 16 15 15 16
3 3 2 2 2 2 1 1 2 2 1 1 2 2 1 1 1 1 1 2 2 2 2 2 3 4 8 10 12 13 14 14 14 15 15 15 15 16 16 16 16 16 17
3 3 2 2 2 2 1 1 1 2 2 2 2 2 2 1 0 1 1 2 2 2 3 3 2 2 3 9 11 13 14 15 15 15 15 15 15 15 15 15 16 16 17
3 3 3 2 2 2 2 2 2 1 1 2 1 1 2 3 3 2 1 1 2 2 3 3 3 3 3 2 6 12 14 15 15 16 16 16 16 16 16 16 16 17 17
4 3 3 2 2 2 1 1 1 1 1 1 2 1 1 1 3 3 2 2 2 2 3 3 4 4 4 3 4 8 12 15 16 17 17 17 16 17 16 16 17 17 17
4 3 3 2 2 2 1 1 1 1 1 0 1 1 0 1 0 3 3 2 3 3 3 4 4 4 4 3 5 10 13 15 16 17 17 17 17 17 17 17 17 17 17
4 3 3 2 2 2 1 1 1 1 1 1 0 1 1 1 1 1 4 4 4 3 3 3 3 3 4 4 4 8 14 15 16 17 17 17 17 18 18 18 18 18 18
2 3 3 2 2 2 2 1 1 1 0 1 0 0 0 0 1 1 3 5 5 4 4 3 3 3 3 4 6 13 15 16 16 17 17 17 18 18 18 18 18 18 18
2 3 3 2 2 2 2 1 1 1 1 1 0 0 0 1 1 2 2 4 5 4 3 2 2 2 4 4 5 13 13 16 16 17 17 17 17 18 19 18 18 18 18
3 3 3 2 2 2 2 1 1 1 1 1 0 0 1 1 1 1 2 3 5 4 3 4 2 2 3 4 7 12 9 16 16 16 17 17 17 17 18 18 18 17 17
3 4 3 3 2 2 2 2 1 1 1 1 1 1 1 1 1 1 1 1 2 6 6 4 3 4 5 5 8 7 7 14 17 16 16 16 16 17 17 17 17 16 16
4 4 4 3 3 2 2 2 1 1 1 0 0 0 1 1 1 1 1 2 2 4 6 4 4 5 6 7 11 8 8 16 15 16 16 16 16 16 16 16 16 15 15
4 4 4 3 3 3 2 2 1 1 1 1 1 1 2 2 1 1 2 2 2 3 7 7 5 5 6 7 8 7 7 6 8 15 16 16 16 16 16 16 15 15 14
4 4 3 3 3 3 2 2 2 1 1 1 1 1 2 2 2 2 2 2 3 3 5 8 7 6 7 7 8 8 8 8 7 13 16 17 16 16 15 15 14 14 14
4 4 3 3 3 3 2 2 2 1 1 1 1 2 2 2 3 2 3 3 3 4 3 6 8 6 6 6 7 8 8 6 7 10 13 14 15 15 15 15 15 14 14
4 4 3 3 3 2 2 2 1 1 1 1 1 1 2 2 3 3 3 3 3 4 4 5 6 6 6 6 6 7 8 6 7 8 9 11 13 14 15 15 14 13 13
4 4 3 3 2 2 2 2 1 1 1 1 1 2 2 3 4 4 4 3 3 3 4 5 6 6 6 6 6 6 8 8 7 5 6 7 7 6 7 11 12 12 13
3 3 3 3 2 2 2 2 1 1 1 1 2 2 2 2 4 5 7 7 6 4 5 5 5 6 8 7 6 6 7 8 7 5 6 7 5 6 6 5 11 14 13
3 3 3 3 2 2 2 2 0 0 1 1 2 2 2 2 4 3 5 7 7 8 8 6 7 7 7 7 7 8 7 8 8 6 6 7 5 5 6 7 13 13 13
3 3 3 3 2 2 2 1 0 0 1 1 1 2 2 3 3 3 3 4 4 5 6 5 5 6 6 6 6 7 7 8 7 4 4 6 5 5 7 5 11 13 14
2 2 2 2 2 2 2 1 1 1 0 1 2 1 2 2 4 5 4 4 5 5 6 7 8 8 10 11 9 5 6 6 7 5 3 3 4 6 5 4 6 12 13
2 2 2 2 2 2 2 1 0 1 0 1 1 2 3 4 5 6 3 4 5 5 5 6 6 7 6 7 9 5 4 5 6 5 3 4 4 5 5 4 4 5 6
Wind_Direction
105 93 89 75 60 55 40 6 17 31 28 18 8 17 14 14 28 62 78 57 32 4 352 350 349 349 349 345 342 337 333 328 324 322 318 313 310 307 305 305 303 299 296
102 95 83 72 59 46 24 21 32 31 27 22 14 15 12 14 24 42 80 56 25 3 358 354 349 345 342 340 337 335 332 329 325 322 319 315 310 308 304 303 302 299 296
103 100 90 75 57 37 28 22 27 29 21 23 22 16 14 16 14 23 36 50 27 17 4 350 344 340 339 336 334 332 330 328 325 321 318 315 313 309 305 302 299 298 296
103 99 96 88 61 42 39 35 33 32 17 17 9 356 3 2 2 15 26 19 22 20 1 349 339 336 335 334 333 331 329 326 324 321 317 314 313 310 307 302 299 297 296
105 102 100 94 76 57 40 32 40 36 26 12 355 344 355 351 339 9 18 10 13 6 351 343 340 335 333 332 331 330 327 324 324 323 320 315 311 309 307 305 301 298 297
110 104 105 94 82 77 49 45 48 30 35 1 345 344 322 308 320 8 355 358 359 352 343 335 328 324 330 330 329 328 327 326 324 323 321 317 314 311 308 307 305 300 296
114 107 108 98 83 89 74 51 53 47 26 7 15 344 327 305 341 9 355 351 341 334 333 326 322 318 319 323 324 325 326 327 327 324 323 319 315 314 311 312 310 306 299
119 117 116 112 100 92 66 53 54 50 19 23 27 357 345 341 348 338 332 325 327 334 330 328 326 322 314 314 318 324 324 324 326 325 323 320 317 314 312 310 310 310 307
125 121 121 116 108 108 108 71 71 78 66 357 36 71 58 303 319 312 306 319 325 328 317 317 325 326 323 318 313 322 324 325 324 324 324 321 318 316 315 313 311 311 310
133 130 127 120 117 110 110 105 80 81 101 19 347 24 142 191 305 313 313 317 328 321 314 323 326 316 319 318 318 327 327 325 323 323 323 323 321 319 317 316 314 312 311
139 137 134 129 126 116 112 92 79 72 102 130 61 335 332 330 275 250 293 307 315 305 309 309 306 311 319 318 317 328 331 328 326 325 324 322 321 319 317 316 315 314 312
144 148 144 142 137 131 133 130 119 100 87 87 54 36 290 291 299 291 285 300 302 299 300 296 304 314 320 324 325 330 329 328 325 325 325 323 321 320 318 316 314 313 311
154 162 151 149 143 143 143 135 133 147 131 111 125 292 298 281 287 289 288 297 300 298 296 296 302 320 330 329 320 324 322 323 322 322 321 321 320 319 318 316 314 313 312
157 157 155 153 148 148 144 135 137 160 133 147 209 266 280 290 307 295 282 299 306 301 294 290 303 318 329 319 313 321 319 320 320 320 319 319 318 318 319 319 317 316 315
151 153 156 155 153 151 152 146 157 175 150 173 204 266 276 277 290 288 289 277 286 301 303 301 319 323 324 316 314 316 313 316 319 318 319 319 320 319 320 321 320 319 318
146 152 156 158 157 157 157 155 167 171 152 193 196 277 291 282 284 287 280 279 266 273 287 296 303 309 316 319 320 321 313 318 318 319 320 321 321 322 322 323 322 321 321
148 156 159 156 157 162 160 153 169 165 161 229 246 241 264 272 270 274 273 273 275 273 281 292 298 311 315 317 317 314 312 313 314 320 320 320 322 324 325 324 324 325 325
147 152 152 152 158 159 157 162 181 178 189 222 248 259 273 283 279 276 276 276 277 276 280 295 306 312 311 311 312 315 319 318 313 320 323 322 324 326 329 331 332 332 330
142 144 147 157 163 162 160 167 172 180 202 229 249 264 278 285 287 291 290 288 287 294 291 294 300 304 306 312 315 315 316 314 317 322 325 327 327 330 333 334 333 333 332
143 146 149 154 156 155 153 153 157 172 214 259 264 264 275 279 284 295 295 292 297 302 301 298 298 305 308 310 315 320 321 323 322 323 326 325 326 329 330 330 330 331 332
144 145 145 148 153 157 159 151 162 178 205 270 286 280 279 289 302 304 305 306 307 302 302 301 301 309 312 318 321 318 318 317 314 317 321 321 321 322 325 324 326 329 332
140 145 151 154 157 164 156 148 165 177 208 259 280 290 292 290 300 313 315 313 308 298 298 297 297 301 305 310 315 318 318 320 316 324 324 315 317 315 318 318 325 330 333
142 146 154 152 159 168 162 162 189 190 221 248 267 288 303 305 312 306 309 311 305 298 291 287 290 294 300 307 312 313 313 312 302 309 317 305 312 311 313 319 327 333 336
144 151 156 158 161 173 174 170 163 135 232 259 266 272 283 294 301 308 310 308 300 299 297 293 284 291 300 305 303 302 302 303 296 304 321 303 309 308 311 311 324 333 338
144 149 152 157 160 181 183 162 85 135 223 285 290 302 296 293 304 320 320 312 312 311 315 312 312 314 320 324 325 321 321 320 315 314 336 313 309 314 308 305 317 330 335
140 143 149 156 159 174 179 165 80 150 233 291 306 310 310 318 320 327 319 310 310 314 323 327 326 326 325 328 336 330 318 316 315 313 336 330 316 327 319 306 315 326 330